Temperature
21 21 20 20 20 20 19 19 19 19 18 18 18 17 17 17 17 17 17 17 17 16 16 16 16 16 16 16 15 15 15 15 15 14 14 14 13 13 13 12 12 12 12
21 21 20 20 20 20 19 19 19 19 18 18 18 18 17 17 17 17 17 17 16 16 16 16 16 16 16 16 15 15 15 15 15 14 14 13 13 13 13 12 12 12 12
21 21 20 20 20 19 19 19 19 19 19 18 18 18 18 17 17 17 17 17 16 16 16 16 16 16 16 15 15 15 15 15 14 14 14 13 13 13 12 12 12 12 12
21 20 20 20 20 20 19 19 19 19 19 18 18 18 17 17 17 17 17 16 16 16 16 16 16 16 15 15 15 15 15 14 14 14 14 13 13 13 12 12 12 12 12
21 20 20 20 20 20 19 19 19 19 18 19 18 18 17 17 17 17 16 16 16 16 16 16 16 16 16 15 15 15 14 14 14 14 14 13 13 13 12 12 12 12 12
20 20 20 20 20 20 19 19 19 19 18 18 18 18 17 17 17 17 17 16 16 16 16 15 15 15 15 15 15 15 14 14 14 14 14 13 13 13 12 12 12 12 12
20 20 20 20 20 19 19 19 19 19 19 18 18 18 17 17 17 17 17 16 16 16 15 15 15 15 15 15 15 14 14 14 14 14 14 13 13 13 12 12 12 12 12
20 20 19 19 19 19 19 19 19 18 18 18 18 18 17 17 17 17 17 16 16 15 15 15 15 15 15 15 14 14 14 14 13 13 13 13 13 12 12 12 12 12 11
20 20 19 19 19 19 18 19 18 18 18 18 18 17 17 17 17 17 16 16 15 15 15 15 15 14 15 15 14 14 13 13 13 13 13 13 13 13 12 12 11 12 12
19 19 19 19 19 18 18 18 18 18 18 17 17 17 17 17 16 16 16 15 15 15 15 15 15 14 14 14 14 13 13 13 13 13 13 13 12 12 12 12 12 12 12
19 19 19 18 18 18 18 18 17 17 17 17 16 16 16 16 16 16 16 15 15 14 14 14 14 14 14 14 14 13 13 13 12 12 12 12 12 12 12 12 11 11 11
18 18 18 18 18 17 17 17 17 17 16 16 16 16 15 16 15 15 15 15 14 14 14 14 14 14 14 14 13 13 13 13 12 12 12 12 12 12 11 11 11 11 11
18 18 18 17 17 17 17 17 16 16 16 16 15 15 15 15 15 15 15 14 14 14 13 13 13 13 13 13 13 13 13 12 12 12 12 12 12 12 11 11 11 11 11
17 17 17 17 17 17 16 16 16 16 15 15 15 15 15 15 15 15 14 14 14 14 13 13 13 13 13 13 13 12 12 12 12 12 12 12 11 11 11 11 11 11 11
17 17 16 16 16 16 16 16 16 16 15 15 15 15 15 14 14 14 14 14 14 14 13 13 13 12 12 12 12 12 12 11 11 11 11 11 11 11 11 11 10 11 11
16 16 16 16 16 16 16 15 16 15 15 15 15 15 14 14 14 14 14 14 14 14 13 12 12 12 12 12 12 12 12 11 11 11 11 11 11 11 11 10 10 10 10
16 16 16 16 16 15 15 15 15 15 15 15 14 14 14 14 14 14 14 13 13 13 13 12 12 12 12 12 12 12 12 11 11 11 11 11 11 11 11 10 10 10 10
16 16 15 15 15 15 15 15 14 14 14 14 14 14 14 14 14 13 13 13 13 13 12 12 12 12 12 12 12 11 11 11 11 11 11 10 10 10 10 10 10 10 10
15 15 15 15 15 15 14 14 14 14 14 14 14 14 14 14 13 13 13 13 12 12 12 12 12 12 12 11 11 11 11 11 11 10 10 10 10 10 10 10 10 10 10
14 15 14 14 14 14 14 14 14 14 14 13 14 13 13 13 13 13 12 12 12 12 12 12 12 12 11 11 11 11 11 11 11 10 10 10 10 10 10 10 10 10 10
14 14 14 14 14 14 14 14 14 13 13 13 13 13 13 13 12 12 12 12 12 12 12 11 11 11 11 11 11 11 11 11 11 10 10 10 10 10 10 10 9 9 9
14 14 14 14 13 13 13 13 13 13 13 13 13 13 12 12 12 12 12 12 12 12 11 11 11 11 11 11 11 11 11 10 10 10 10 10 10 10 10 9 9 9 9
14 14 14 13 13 13 13 13 13 13 13 12 12 12 12 12 12 12 12 12 12 11 11 11 11 11 11 11 10 10 10 10 10 10 10 10 9 9 9 9 9 9 9
14 14 14 13 13 13 13 13 12 12 12 12 12 12 12 12 12 12 11 11 11 11 11 11 11 10 10 10 10 10 10 10 10 9 9 9 9 9 9 9 9 9 8
14 13 13 13 13 13 12 12 12 12 12 12 12 12 12 12 11 11 11 11 11 11 11 10 10 10 10 10 10 10 10 10 9 9 9 9 9 9 9 9 8 8 8
13 13 13 13 12 12 12 12 12 12 12 12 11 11 11 11 11 11 11 11 10 10 10 10 10 10 10 10 9 10 9 9 9 9 9 9 8 8 8 8 8 8 8
Wind_Speed
10 9 8 7 7 6 5 5 4 3 3 2 2 2 1 1 1 1 1 1 1 1 1 2 2 1 2 2 3 3 2 2 3 3 3 4 4 3 4 4 4 4 7
10 9 8 7 7 7 6 5 5 4 3 3 3 2 2 1 1 1 1 1 1 1 1 2 2 2 2 2 2 2 2 2 3 4 4 4 4 4 4 3 3 4 5
11 10 9 8 8 7 6 6 5 5 4 4 3 3 2 2 2 2 2 2 2 2 2 2 2 2 2 2 2 2 2 3 3 4 5 4 4 4 4 3 3 2 4
10 10 9 9 8 7 7 6 6 5 5 5 4 4 3 3 2 2 2 2 2 2 2 2 2 2 1 2 2 3 3 3 4 5 5 5 4 4 4 4 3 3 3
10 10 10 9 8 8 7 7 6 6 6 5 5 5 4 3 2 2 2 2 2 2 3 2 2 3 4 1 0 2 3 3 4 4 5 4 4 4 4 3 3 3 3
10 10 9 9 9 8 8 8 7 7 6 6 6 5 4 2 4 3 1 2 2 3 2 2 3 4 4 3 3 3 1 3 3 4 4 4 5 5 4 4 3 3 3
10 9 9 9 9 8 8 8 8 8 7 7 6 5 4 3 5 4 1 2 2 2 2 2 2 3 4 3 4 3 2 1 1 3 3 4 4 4 4 5 4 4 2
10 10 9 9 9 8 8 8 7 7 7 6 6 6 5 4 6 5 3 4 3 3 2 2 2 2 2 2 3 4 4 3 3 4 3 3 3 3 5 5 4 4 3
9 10 10 10 9 9 8 8 7 7 7 6 6 6 5 5 6 6 5 4 3 3 3 3 3 3 3 1 3 4 3 3 4 3 1 1 1 3 3 4 4 5 4
8 8 8 9 9 9 8 7 7 6 6 6 5 5 5 5 6 7 6 4 4 4 4 4 3 2 4 3 4 4 4 4 3 4 4 5 6 6 7 6 5 5 4
7 7 7 7 8 7 7 7 7 6 6 5 5 5 5 4 7 7 6 4 3 4 4 4 3 6 4 4 5 4 3 3 4 5 5 5 5 5 6 6 5 5 5
7 7 7 6 6 6 7 6 6 6 7 6 5 5 4 5 5 7 7 6 4 4 3 3 3 7 5 5 5 3 3 5 5 5 5 5 5 5 5 5 6 6 5
6 6 6 6 6 6 6 6 6 6 5 5 5 5 5 5 6 8 9 8 6 4 2 2 3 6 7 6 7 6 6 6 6 5 5 5 5 4 4 5 6 6 6
6 6 6 6 6 6 5 5 5 5 5 5 5 5 4 4 4 5 5 6 6 5 4 3 6 7 6 4 5 7 6 5 5 5 5 4 4 5 5 5 5 5 5
6 6 5 5 5 5 4 3 5 4 3 4 4 4 4 4 3 3 4 4 4 4 4 4 5 5 5 5 5 5 5 5 5 5 5 5 5 5 5 5 5 6 6
6 5 5 5 5 5 5 4 1 0 3 2 1 2 2 2 5 5 4 3 3 4 4 5 6 6 6 6 6 6 6 6 6 6 6 5 6 6 6 5 6 7 7
5 5 4 4 5 4 4 4 4 2 2 3 4 4 4 3 5 6 6 5 5 6 6 6 6 6 6 6 6 6 6 6 6 6 6 6 6 6 6 6 6 6 6
5 4 4 4 4 4 4 4 5 5 4 4 5 7 7 7 6 6 6 5 4 6 6 7 7 7 7 7 7 7 6 6 6 6 7 7 7 7 7 7 7 7 7
4 4 4 4 4 5 5 5 5 5 5 4 3 5 7 7 7 7 8 6 6 7 7 7 7 7 7 7 7 7 7 7 6 6 7 8 8 7 7 7 7 7 8
3 2 3 4 4 4 5 5 5 4 4 4 4 3 4 5 4 5 6 6 7 7 7 7 7 7 7 7 7 7 7 7 7 7 7 7 7 8 8 9 8 8 8
2 3 4 4 4 4 4 5 4 4 4 4 4 3 3 5 6 6 6 7 7 7 7 7 7 7 7 7 7 8 8 8 8 8 8 8 8 8 8 8 8 8 7
2 3 3 3 3 4 4 4 4 4 4 5 4 4 6 6 6 6 6 7 7 7 7 7 7 7 6 7 7 8 8 8 8 8 8 8 8 8 8 8 8 7 7
2 3 3 3 3 4 4 4 4 4 4 5 5 4 5 6 6 6 6 6 6 6 6 6 7 7 7 7 8 8 8 8 8 8 8 8 8 8 7 8 8 8 8
3 3 3 3 4 4 4 4 4 5 5 5 5 5 5 6 6 6 6 6 6 6 6 6 7 7 8 7 7 7 7 7 8 8 9 9 8 8 7 8 8 9 9
3 3 3 3 4 4 4 4 4 4 5 5 5 5 6 6 6 6 6 5 6 6 6 6 6 7 8 8 8 6 4 5 7 8 8 8 9 9 8 8 8 8 7
2 2 2 2 3 3 4 4 4 5 5 5 5 5 6 6 6 5 5 5 5 5 6 6 6 7 7 7 6 5 3 4 6 8 9 8 8 7 7 7 9 8 7
Wind_Direction
184 183 183 181 181 183 185 185 179 175 170 182 198 201 210 224 248 247 261 229 227 221 221 202 216 223 214 202 207 215 214 210 178 150 136 134 147 141 132 134 131 126 111
181 180 182 183 183 185 184 183 177 177 182 185 195 201 210 198 221 232 239 226 217 209 204 196 200 185 194 227 216 207 199 194 183 162 155 157 164 158 154 165 143 132 128
178 179 177 182 181 182 181 180 180 180 184 190 194 199 199 191 199 212 218 217 211 204 197 191 190 180 194 187 215 202 195 181 170 168 167 160 167 164 166 166 153 158 154
178 179 177 180 179 179 184 185 187 187 188 190 191 194 192 190 194 205 201 201 205 196 183 173 169 178 172 187 199 199 189 176 174 176 168 167 165 170 187 181 177 187 187
180 182 180 180 180 180 184 188 188 193 195 187 186 189 190 186 192 197 198 185 192 184 158 151 130 88 54 20 247 173 178 190 183 177 172 172 172 180 196 196 189 192 187
182 185 180 179 180 183 186 184 185 189 190 185 186 187 190 185 99 83 285 148 163 159 149 149 148 135 118 97 52 52 59 199 190 187 188 186 189 199 202 211 210 214 200
181 183 183 183 183 185 184 182 184 185 184 185 186 186 185 145 129 139 176 175 165 159 166 184 186 138 158 156 147 163 161 16 270 236 205 204 196 200 209 219 220 233 232
177 178 184 186 185 184 183 183 183 183 184 184 185 185 181 162 150 165 196 192 183 176 177 182 184 166 163 171 175 175 186 186 206 225 220 227 221 205 217 230 229 223 223
179 178 184 187 187 185 185 184 183 183 184 188 186 187 188 173 163 176 209 191 184 189 188 186 194 179 121 238 196 188 192 189 166 155 158 178 150 185 227 227 216 222 227
182 181 182 185 187 187 184 183 179 182 186 189 184 188 189 185 165 177 214 207 192 199 189 187 164 163 148 205 208 201 202 205 198 182 184 191 198 196 204 225 227 231 234
173 173 176 181 184 183 178 178 177 180 183 189 182 184 185 182 170 175 206 222 209 211 204 199 167 145 169 211 238 220 212 226 219 215 211 203 201 202 205 211 229 242 246
167 167 167 171 176 172 172 174 177 179 182 184 183 188 184 179 179 177 192 223 264 223 226 214 150 153 187 215 227 212 203 233 232 224 224 222 218 218 214 215 222 239 257
164 164 165 167 167 163 166 172 178 186 192 190 190 194 194 185 175 176 190 206 226 230 229 93 132 175 197 208 208 213 213 224 230 229 234 235 231 226 223 215 216 223 236
165 164 165 164 166 167 173 178 186 189 197 200 200 203 199 195 192 182 193 196 201 215 229 182 183 196 219 223 204 212 223 228 233 235 238 240 235 225 224 225 225 218 224
169 168 172 174 169 166 177 190 204 200 203 211 211 210 212 213 192 176 209 206 209 203 204 209 209 205 212 220 221 220 223 220 227 237 242 242 238 235 232 229 229 231 234
174 178 183 185 177 179 175 184 110 209 114 137 317 264 213 143 138 161 193 208 187 165 200 221 221 221 224 226 228 226 223 223 227 231 234 239 240 238 235 229 229 233 235
186 187 193 191 188 196 198 198 197 187 169 191 205 221 234 192 176 182 191 198 193 179 210 230 233 233 234 232 231 233 234 228 226 232 236 239 243 243 239 236 233 237 242
197 191 201 201 203 204 208 214 215 212 212 217 206 202 204 203 202 196 185 180 200 204 226 236 238 237 238 239 237 236 238 234 228 233 238 241 242 245 243 240 237 238 242
199 200 207 216 215 211 210 217 221 220 224 224 214 191 191 193 193 192 187 212 226 229 231 236 241 243 242 240 240 237 236 237 236 237 239 241 242 242 243 244 244 237 245
192 181 212 217 218 214 213 217 220 222 225 228 230 230 190 191 207 199 205 223 236 243 246 247 247 250 249 247 243 240 238 237 238 237 241 242 241 241 240 241 245 244 241
187 179 197 215 216 217 216 218 220 224 226 229 235 228 228 229 231 228 227 229 237 246 249 252 253 251 250 247 245 243 241 241 240 242 242 242 241 240 241 243 245 247 248
201 202 208 213 214 217 223 227 231 232 233 239 244 225 205 237 245 243 242 240 241 245 249 249 251 251 251 248 246 245 245 247 247 245 244 243 240 242 242 241 242 244 246
212 218 221 217 218 214 225 231 234 241 243 243 245 243 235 245 251 250 250 252 251 251 251 252 255 256 253 251 250 250 250 251 252 251 247 245 243 241 241 241 241 244 245
213 218 222 220 221 225 226 229 237 243 246 245 246 246 245 246 251 254 255 256 254 253 253 252 255 259 259 258 254 250 251 256 258 254 249 247 245 245 241 238 239 241 241
226 224 225 224 227 230 231 234 240 244 249 252 252 251 253 253 254 256 258 259 257 258 259 258 259 259 259 261 265 267 259 250 251 255 250 247 246 243 243 242 241 242 241
236 235 239 241 242 247 245 244 247 253 255 257 258 256 258 259 258 260 262 263 262 260 260 259 262 265 264 261 268 275 250 236 238 246 249 248 246 242 241 241 241 238 239
Height
1533 1535 1538 1539 1541 1542 1543 1544 1544 1545 1546 1546 1546 1546 1546 1546 1546 1546 1546 1545 1545 1545 1544 1544 1544 1544 1544 1544 1544 1545 1546 1546 1547 1547 1548 1548 1548 1548 1548 1548 1548 1547 1546
1532 1534 1536 1538 1539 1540 1541 1542 1543 1544 1545 1545 1545 1545 1545 1545 1544 1544 1544 1544 1543 1543 1543 1543 1543 1543 1542 1543 1543 1544 1544 1544 1545 1545 1546 1546 1546 1547 1547 1547 1548 1548 1547
1530 1532 1533 1536 1537 1539 1540 1541 1542 1542 1543 1543 1543 1543 1543 1543 1543 1542 1542 1542 1542 1541 1541 1541 1541 1541 1541 1541 1541 1542 1543 1543 1544 1544 1545 1545 1546 1546 1546 1546 1547 1546 1547
1527 1529 1531 1533 1535 1536 1538 1539 1540 1540 1540 1540 1541 1541 1541 1541 1541 1540 1540 1539 1539 1539 1539 1539 1539 1540 1539 1540 1540 1540 1541 1541 1542 1543 1544 1544 1544 1545 1545 1545 1546 1546 1546
1524 1526 1528 1530 1532 1533 1534 1536 1537 1538 1538 1538 1539 1539 1539 1539 1539 1538 1538 1538 1537 1538 1537 1538 1538 1538 1537 1538 1539 1539 1539 1540 1541 1542 1542 1543 1543 1543 1544 1544 1544 1544 1544
1521 1523 1525 1526 1528 1529 1530 1532 1533 1534 1535 1536 1536 1537 1537 1537 1537 1536 1536 1536 1536 1536 1535 1537 1537 1537 1536 1536 1536 1537 1538 1538 1539 1540 1540 1541 1541 1542 1542 1542 1543 1543 1543
1517 1519 1521 1523 1524 1526 1527 1529 1530 1531 1532 1533 1534 1534 1534 1534 1534 1534 1534 1534 1535 1534 1534 1536 1537 1536 1536 1535 1535 1535 1536 1536 1537 1538 1539 1539 1539 1539 1539 1540 1540 1540 1540
1513 1515 1518 1520 1521 1523 1524 1525 1527 1528 1529 1530 1530 1531 1531 1532 1532 1532 1532 1533 1533 1533 1534 1534 1534 1534 1535 1534 1535 1535 1535 1535 1535 1536 1536 1537 1537 1537 1537 1538 1538 1538 1538
1510 1511 1514 1516 1518 1519 1521 1522 1523 1524 1525 1526 1527 1528 1528 1529 1529 1530 1530 1531 1531 1531 1532 1532 1532 1533 1532 1533 1533 1533 1533 1533 1534 1533 1534 1534 1534 1534 1535 1535 1536 1536 1536
1507 1509 1510 1513 1514 1516 1517 1519 1520 1521 1522 1524 1524 1525 1525 1526 1526 1527 1527 1528 1529 1530 1530 1530 1530 1530 1530 1531 1531 1531 1532 1532 1532 1532 1531 1531 1532 1532 1532 1532 1533 1533 1533
1504 1506 1508 1509 1511 1513 1514 1515 1517 1518 1519 1521 1521 1522 1522 1523 1524 1524 1524 1525 1526 1527 1528 1528 1528 1527 1528 1528 1529 1529 1529 1529 1530 1530 1530 1530 1529 1529 1529 1529 1529 1530 1530
1501 1503 1504 1506 1508 1510 1511 1512 1514 1515 1516 1517 1518 1519 1519 1520 1520 1521 1522 1522 1523 1524 1525 1526 1525 1525 1525 1526 1526 1526 1526 1526 1527 1527 1528 1528 1527 1527 1526 1526 1526 1526 1526
1499 1500 1502 1503 1505 1506 1508 1509 1511 1512 1514 1515 1515 1516 1517 1517 1517 1517 1518 1519 1520 1521 1522 1522 1522 1522 1522 1523 1522 1522 1523 1523 1524 1524 1524 1524 1524 1524 1523 1523 1522 1522 1522
1496 1498 1499 1501 1502 1504 1505 1507 1508 1509 1510 1511 1512 1513 1513 1514 1514 1514 1515 1515 1516 1517 1518 1518 1518 1519 1519 1519 1519 1519 1519 1519 1519 1520 1520 1520 1520 1520 1520 1519 1519 1519 1518
1494 1495 1497 1499 1500 1501 1503 1504 1505 1506 1507 1508 1509 1509 1510 1510 1510 1511 1511 1512 1513 1513 1513 1514 1515 1515 1515 1515 1516 1515 1515 1515 1515 1515 1516 1516 1516 1516 1516 1516 1515 1515 1515
1492 1493 1495 1497 1498 1499 1500 1501 1501 1503 1503 1504 1505 1506 1506 1506 1507 1507 1508 1508 1508 1509 1509 1510 1511 1511 1511 1511 1512 1512 1511 1511 1511 1511 1511 1511 1511 1511 1511 1511 1511 1511 1511
1489 1491 1493 1494 1495 1496 1497 1498 1498 1499 1499 1500 1501 1501 1502 1502 1503 1504 1504 1505 1504 1505 1505 1506 1507 1507 1507 1507 1507 1507 1507 1507 1506 1507 1507 1507 1507 1507 1506 1506 1506 1506 1506
1487 1489 1490 1491 1492 1493 1494 1495 1496 1496 1496 1496 1497 1498 1498 1499 1500 1500 1500 1501 1501 1501 1501 1502 1502 1503 1503 1503 1503 1503 1503 1502 1502 1502 1502 1501 1501 1501 1501 1501 1501 1501 1501
1485 1486 1487 1488 1490 1490 1491 1492 1493 1493 1494 1494 1495 1494 1495 1495 1496 1496 1496 1497 1497 1498 1498 1498 1498 1498 1498 1498 1498 1497 1497 1497 1497 1497 1496 1496 1496 1496 1496 1496 1496 1496 1496
1482 1483 1484 1485 1486 1487 1488 1489 1489 1490 1491 1491 1491 1491 1491 1491 1491 1492 1492 1493 1493 1493 1493 1493 1493 1493 1493 1493 1493 1492 1492 1492 1492 1491 1491 1491 1491 1490 1490 1490 1490 1490 1490
1480 1480 1481 1482 1484 1484 1485 1486 1486 1486 1487 1487 1488 1488 1488 1488 1488 1488 1488 1488 1488 1488 1488 1488 1488 1488 1488 1487 1487 1487 1487 1486 1486 1486 1485 1485 1485 1485 1485 1485 1485 1485 1485
1478 1478 1479 1480 1481 1481 1482 1483 1482 1483 1483 1484 1484 1484 1483 1484 1484 1484 1484 1483 1483 1483 1484 1483 1483 1483 1483 1482 1482 1482 1481 1481 1481 1480 1480 1480 1480 1480 1479 1479 1480 1479 1480
1475 1476 1477 1477 1478 1478 1479 1479 1479 1479 1480 1480 1480 1480 1480 1480 1480 1480 1479 1479 1479 1479 1479 1478 1478 1478 1477 1477 1476 1476 1476 1475 1475 1475 1474 1474 1474 1474 1474 1474 1474 1474 1474
1473 1474 1474 1474 1475 1475 1475 1475 1475 1476 1476 1477 1477 1477 1476 1476 1476 1475 1475 1475 1474 1474 1474 1473 1473 1473 1472 1472 1471 1470 1469 1469 1468 1468 1468 1468 1468 1468 1468 1468 1468 1468 1469
1471 1471 1471 1472 1472 1472 1471 1471 1472 1472 1472 1473 1473 1472 1472 1471 1471 1471 1470 1470 1469 1469 1469 1468 1468 1467 1466 1466 1466 1465 1464 1463 1463 1463 1462 1463 1463 1462 1462 1462 1463 1463 1463
1469 1469 1469 1469 1469 1469 1468 1468 1468 1468 1468 1468 1468 1468 1467 1467 1467 1466 1465 1465 1465 1464 1464 1463 1463 1462 1461 1461 1460 1459 1458 1457 1457 1457 1458 1457 1457 1457 1457 1457 1458 1458 1458